Find Starlink 32816

NORAD ID: 63050 Int'l Des: 2025-034 Owner: SPXS Country: US Constellation: starlink operational
LEOCIRCULAR

Live-Position

3D-Globus wird geladen...

Über Starlink 32816

Beschreibung wird geladen...

Nächste Überflüge

Passes for default location (London). Set your location on the main map for personalized predictions.

Höhenverlauf

Loading altitude history...

Zweizeiliger Elementsatz

1 63050U 25034X 26107.15543747 .00013254 00000-0 45873-3 0 9995
2 63050 53.1586 92.4044 0002180 99.6496 260.4751 15.30205601 64795
Epoch: 17. Apr. 2026 • Age: 16 hours

Aktueller Status

Höhe 477.8 km
Geschwindigkeit 7.63 km/s
Subsatellitenpunkt 42.17°N, 81.74°E
Startdatum 18. Feb. 2025
Alter 1.1 years
Typ internet

Technische Details

Klassifizierung Payload
Masse 730.00 kg
Trockenmasse 700.00 kg
Gesamtmasse 730.00 kg
Länge 0.30 m
Durchmesser 4.10 m
Spannweite 29.00 m
Form Box + pan
Hersteller SPXS
Bus-Typ Starlink V2M
Phasenstatus In Orbit
Besitzer/Staat SPXS/US

Most Searched